Weather History for Bentonville, AR

Change the Weather History Date:

Saturday, December 17, 2011

  Actual Average Record
Temperature  
Mean Temperature 38 °F -  
Max Temperature 51 °F 46 °F 68 °F (1957)
Min Temperature 24 °F 24 °F -4 °F (1989)
Degree Days  
Heating Degree Days 28    
Moisture  
Dew Point 27 °F    
Average Humidity 71    
Maximum Humidity 93    
Minimum Humidity 44    
Precipitation  
Precipitation 0.00 in - - ()
Sea Level Pressure  
Sea Level Pressure 30.38 in    
Wind  
Wind Speed 2 mph (SW)    
Max Wind Speed 9 mph    
Max Gust Speed -    
Visibility 9 miles    
Events      
Averages and records for this station are not official NWS values.
T = Trace of Precipitation, MM = Missing Value Source: NWS Daily Summary

Daily Weather History Graph

Daily Weather History Graph

Search for Another Location

Airport:

Trip Planner

Search our weather history database for the weather conditions in past years. The results will help you decide how hot, cold, wet, or windy it might be!

Date:

Astronomy

Dec. 17, 2011 Rise Set
Actual Time 7:22 AM CST 5:03 PM CST
Civil Twilight 6:53 AM CST 5:32 PM CST
Nautical Twilight 6:21 AM CST 6:04 PM CST
Astronomical Twilight 5:49 AM CST 6:36 PM CST
Moon No Moon Rise 11:49 AM CST (12/17)
Length of Visible Light 10h 38m
Length of Day
9h 41m
Waning Gibbous, 53% of the Moon is Illuminated
Dec 17
Waning Gibbous
Dec 17
Last Quarter
Dec 24
New
Jan 1
First Quarter
Jan 9
Full

Hourly Weather History & Observations

Time (CST) Temp. Windchill Dew Point Humidity Pressure Visibility Wind Dir Wind Speed Gust Speed Precip Events Conditions
12:15 AM 28.4 °F - 24.8 °F 86% 30.39 in 10.0 mi Calm Calm - N/A   Clear
12:35 AM 28.4 °F - 24.8 °F 86% 30.39 in 8.0 mi Calm Calm - N/A   Clear
12:55 AM 26.6 °F - 23.0 °F 86% 30.39 in 10.0 mi Calm Calm - N/A   Clear
1:15 AM 26.6 °F - 24.8 °F 93% 30.39 in 9.0 mi Calm Calm - N/A   Clear
1:35 AM 26.6 °F - 24.8 °F 93% 30.39 in 9.0 mi Calm Calm - N/A   Clear
1:55 AM 26.6 °F 21.2 °F 21.2 °F 80% 30.39 in 10.0 mi South 4.6 mph - N/A   Clear
2:15 AM 24.8 °F - 21.2 °F 86% 30.39 in 8.0 mi Calm Calm - N/A   Clear
2:35 AM 24.8 °F - 21.2 °F 86% 30.39 in 7.0 mi Calm Calm - N/A   Clear
2:55 AM 24.8 °F 20.5 °F 23.0 °F 93% 30.38 in 7.0 mi SSE 3.5 mph - N/A   Clear
3:15 AM 24.8 °F 20.5 °F 23.0 °F 93% 30.38 in 7.0 mi SSE 3.5 mph - N/A   Clear
3:35 AM 24.8 °F - 21.2 °F 86% 30.38 in 7.0 mi Calm Calm - N/A   Clear
3:55 AM 26.6 °F - 23.0 °F 86% 30.38 in 7.0 mi Calm Calm - N/A   Clear
4:15 AM 26.6 °F - 24.8 °F 93% 30.37 in 7.0 mi Calm Calm - N/A   Clear
4:35 AM 26.6 °F - 23.0 °F 86% 30.37 in 7.0 mi Calm Calm - N/A   Clear
4:55 AM 26.6 °F - 23.0 °F 86% 30.38 in 7.0 mi Calm Calm - N/A   Clear
5:15 AM 26.6 °F - 23.0 °F 86% 30.39 in 5.0 mi Calm Calm - N/A   Clear
5:35 AM 26.6 °F - 23.0 °F 86% 30.39 in 5.0 mi Calm Calm - N/A   Clear
6:15 AM 24.8 °F - 21.2 °F 86% 30.40 in 7.0 mi Calm Calm - N/A   Clear
6:35 AM 24.8 °F - 21.2 °F 86% 30.40 in 7.0 mi Calm Calm - N/A   Clear
7:15 AM 26.6 °F - 23.0 °F 86% 30.41 in 6.0 mi Calm Calm - N/A   Clear
7:35 AM 24.8 °F - 21.2 °F 86% 30.41 in 5.0 mi Calm Calm - N/A   Clear
7:55 AM 26.6 °F 22.6 °F 24.8 °F 93% 30.41 in 5.0 mi SSW 3.5 mph - N/A   Clear
8:15 AM 28.4 °F - 26.6 °F 93% 30.41 in 5.0 mi Calm Calm - N/A   Clear
8:35 AM 30.2 °F - 26.6 °F 86% 30.42 in 1.8 mi Calm Calm - N/A   Clear
8:55 AM 32.0 °F 28.7 °F 26.6 °F 80% 30.42 in 6.0 mi SW 3.5 mph - N/A   Clear
9:15 AM 33.8 °F 28.6 °F 28.4 °F 81% 30.42 in 8.0 mi SSW 5.8 mph - N/A   Clear
9:35 AM 35.6 °F 32.8 °F 28.4 °F 75% 30.43 in 10.0 mi SW 3.5 mph - N/A   Clear
9:55 AM 37.4 °F 32.1 °F 28.4 °F 70% 30.43 in 10.0 mi SW 6.9 mph - N/A   Clear
10:15 AM 39.2 °F 35.9 °F 28.4 °F 65% 30.43 in 10.0 mi SSW 4.6 mph - N/A   Clear
10:35 AM 39.2 °F 35.0 °F 28.4 °F 65% 30.43 in 10.0 mi SW 5.8 mph - N/A   Clear
10:55 AM 42.8 °F 39.3 °F 30.2 °F 61% 30.42 in 10.0 mi SW 5.8 mph - N/A   Clear
11:15 AM 44.6 °F 40.7 °F 30.2 °F 57% 30.41 in 10.0 mi WSW 6.9 mph - N/A   Clear
11:35 AM 44.6 °F 39.7 °F 30.2 °F 57% 30.40 in 10.0 mi SW 9.2 mph - N/A   Clear
11:55 AM 46.4 °F 42.9 °F 28.4 °F 50% 30.40 in 10.0 mi SW 6.9 mph - N/A   Clear
12:15 PM 46.4 °F 42.9 °F 30.2 °F 53% 30.39 in 10.0 mi WSW 6.9 mph - N/A   Clear
12:35 PM 46.4 °F 42.9 °F 30.2 °F 53% 30.38 in 10.0 mi West 6.9 mph - N/A   Clear
1:15 PM 48.2 °F - 30.2 °F 50% 30.37 in 10.0 mi WSW 8.1 mph - N/A   Clear
1:35 PM 48.2 °F - 30.2 °F 50% 30.37 in 10.0 mi West 4.6 mph - N/A   Clear
1:55 PM 50.0 °F - 30.2 °F 47% 30.35 in 10.0 mi WSW 8.1 mph - N/A   Clear
2:15 PM 51.8 °F - 30.2 °F 44% 30.35 in 10.0 mi WSW 6.9 mph - N/A   Clear
2:35 PM 51.8 °F - 30.2 °F 44% 30.35 in 10.0 mi SW 5.8 mph - N/A   Clear
2:55 PM 51.8 °F - 30.2 °F 44% 30.36 in 10.0 mi West 5.8 mph - N/A   Clear
3:35 PM 51.8 °F - 32.0 °F 47% 30.36 in 10.0 mi NW 4.6 mph - N/A   Clear
3:55 PM 51.8 °F - 30.2 °F 44% 30.36 in 10.0 mi WNW 5.8 mph - N/A   Clear
4:35 PM 50.0 °F - 30.2 °F 47% 30.36 in 10.0 mi West 4.6 mph - N/A   Clear
5:15 PM 46.4 °F 45.2 °F 30.2 °F 53% 30.36 in 10.0 mi West 3.5 mph - N/A   Clear
5:35 PM 44.6 °F - 30.2 °F 57% 30.36 in 10.0 mi Calm Calm - N/A   Clear
6:15 PM 42.8 °F - 28.4 °F 57% 30.36 in 10.0 mi Calm Calm - N/A   Clear
6:35 PM 42.8 °F - 30.2 °F 61% 30.36 in 10.0 mi Calm Calm - N/A   Clear
6:55 PM 41.0 °F 39.0 °F 30.2 °F 65% 30.36 in 10.0 mi SSW 3.5 mph - N/A   Clear
7:15 PM 37.4 °F - 26.6 °F 65% 30.36 in 9.0 mi Calm Calm - N/A   Clear
7:35 PM 37.4 °F - 28.4 °F 70% 30.36 in 10.0 mi Calm Calm - N/A   Clear
7:55 PM 37.4 °F 34.9 °F 28.4 °F 70% 30.36 in 10.0 mi WSW 3.5 mph - N/A   Clear
8:15 PM 37.4 °F 34.9 °F 28.4 °F 70% 30.36 in 10.0 mi WSW 3.5 mph - N/A   Clear
8:35 PM 37.4 °F 33.8 °F 30.2 °F 75% 30.36 in 10.0 mi SW 4.6 mph - N/A   Clear
8:55 PM 37.4 °F 34.9 °F 28.4 °F 70% 30.36 in 10.0 mi SW 3.5 mph - N/A   Clear
9:15 PM 37.4 °F - 28.4 °F 70% 30.36 in 10.0 mi Calm Calm - N/A   Clear
9:35 PM 33.8 °F - 28.4 °F 81% 30.36 in 10.0 mi Calm Calm - N/A   Clear
9:55 PM 33.8 °F - 26.6 °F 75% 30.36 in 10.0 mi Calm Calm - N/A   Clear
10:15 PM 33.8 °F 29.6 °F 28.4 °F 81% 30.36 in 10.0 mi South 4.6 mph - N/A   Clear
10:35 PM 35.6 °F 30.7 °F 28.4 °F 75% 30.36 in 10.0 mi South 5.8 mph - N/A   Clear
10:55 PM 35.6 °F 31.7 °F 30.2 °F 81% 30.36 in 10.0 mi SSW 4.6 mph - N/A   Clear
11:15 PM 33.8 °F 29.6 °F 28.4 °F 81% 30.35 in 10.0 mi South 4.6 mph - N/A   Clear
11:35 PM 35.6 °F 32.8 °F 28.4 °F 75% 30.35 in 10.0 mi South 3.5 mph - N/A   Clear
11:55 PM 33.8 °F 28.6 °F 28.4 °F 81% 30.35 in 10.0 mi South 5.8 mph - N/A   Clear